Weather History for Phnom Penh, Cambodia

Change the Weather History Date:

Sunday, December 22, 2013

  Actual Average Record
Temperature  
Mean Temperature 78 °F -  
Max Temperature 82 °F 85 °F 91 °F (2011)
Min Temperature 73 °F 72 °F 68 °F (1999)
Cooling Degree Days 12    
Growing Degree Days 28 (Base 50)    
Moisture  
Dew Point 63 °F    
Average Humidity 62    
Maximum Humidity 73    
Minimum Humidity 51    
Precipitation  
Precipitation 0.00 in - - ()
Sea Level Pressure  
Sea Level Pressure 29.91 in    
Wind  
Wind Speed 10 mph ()    
Max Wind Speed 21 mph    
Max Gust Speed -    
Visibility 6.1 miles    
Events      
Averages and records for this station are not official NWS values.
T = Trace of Precipitation, MM = Missing Value Source: Averaged Metar Reports

Daily Weather History Graph

Daily Weather History Graph

Search for Another Location

Airport:

Trip Planner

Search our weather history database for the weather conditions in past years. The results will help you decide how hot, cold, wet, or windy it might be!

Date:

Astronomy

Dec. 22, 2013 Rise Set
Actual Time 6:15 AM ICT 5:42 PM ICT
Civil Twilight 5:52 AM ICT 6:05 PM ICT
Nautical Twilight 5:26 AM ICT 6:32 PM ICT
Astronomical Twilight 4:59 AM ICT 6:58 PM ICT
Moon 9:41 PM ICT (12/22) 9:34 AM ICT (12/22)
Length of Visible Light 12h 12m
Length of Day
11h 27m
Waning Gibbous, 80% of the Moon is Illuminated
Dec 22
Waning Gibbous
Dec 25
Last Quarter
Jan 1
New
Jan 8
First Quarter
Jan 16
Full

Hourly Weather History & Observations

Time (ICT) Temp. Heat Index Dew Point Humidity Pressure Visibility Wind Dir Wind Speed Gust Speed Precip Events Conditions
12:00 AM 75.2 °F - 62.6 °F 65% 29.92 in 5.6 mi North 6.9 mph - N/A   Partly Cloudy
12:30 AM 75.2 °F - 60.8 °F 61% 29.92 in 5.6 mi North 8.1 mph - N/A   Partly Cloudy
1:00 AM 73.4 °F - 60.8 °F 65% 29.92 in 5.6 mi North 8.1 mph - N/A   Partly Cloudy
6:00 AM 73.4 °F - 62.6 °F 69% 29.89 in 5.6 mi North 6.9 mph - N/A   Partly Cloudy
6:30 AM 73.4 °F - 60.8 °F 65% 29.89 in 5.6 mi North 10.4 mph - N/A   Partly Cloudy
7:00 AM 73.4 °F - 62.6 °F 69% 29.92 in 6.2 mi North 9.2 mph - N/A   Partly Cloudy
7:30 AM 73.4 °F - 62.6 °F 69% 29.92 in 6.2 mi NNE 11.5 mph - N/A   Partly Cloudy
8:00 AM 75.2 °F - 60.8 °F 61% 29.95 in 6.2 mi NNE 15.0 mph - N/A   Partly Cloudy
8:30 AM 75.2 °F - 60.8 °F 61% 29.95 in 6.2 mi NNE 15.0 mph - N/A   Scattered Clouds
9:00 AM 75.2 °F - 62.6 °F 65% 29.95 in 6.2 mi North 11.5 mph - N/A   Scattered Clouds
9:30 AM 77.0 °F - 62.6 °F 61% 29.95 in 6.2 mi North 12.7 mph - N/A   Scattered Clouds
10:00 AM 75.2 °F - 62.6 °F 65% 29.95 in 6.2 mi NNE 15.0 mph - N/A   Scattered Clouds
10:30 AM 78.8 °F - 62.6 °F 57% 29.95 in 6.2 mi North 15.0 mph - N/A   Partly Cloudy
11:00 AM 77.0 °F - 62.6 °F 61% 29.95 in 6.2 mi NNE 15.0 mph - N/A   Partly Cloudy
11:30 AM 78.8 °F - 62.6 °F 57% 29.95 in 6.2 mi NNE 11.5 mph - N/A   Partly Cloudy
12:00 PM 78.8 °F - 62.6 °F 57% 29.95 in 6.2 mi NNE 10.4 mph - N/A   Partly Cloudy
12:30 PM 78.8 °F - 62.6 °F 57% 29.95 in 6.2 mi NNE 11.5 mph - N/A   Partly Cloudy
1:00 PM 78.8 °F - 62.6 °F 57% 29.92 in 6.2 mi North 11.5 mph - N/A   Partly Cloudy
1:30 PM 78.8 °F - 62.6 °F 57% 29.89 in 6.2 mi North 13.8 mph - N/A   Partly Cloudy
2:00 PM 78.8 °F - 62.6 °F 57% 29.89 in 6.2 mi NNW 16.1 mph - N/A   Partly Cloudy
2:30 PM 80.6 °F 81.8 °F 62.6 °F 54% 29.86 in 6.2 mi NNW 20.7 mph - N/A   Partly Cloudy
3:00 PM 80.6 °F 81.8 °F 62.6 °F 54% 29.86 in 6.2 mi NNW 12.7 mph - N/A   Partly Cloudy
3:30 PM 80.6 °F 81.8 °F 62.6 °F 54% 29.86 in 6.2 mi North 12.7 mph - N/A   Partly Cloudy
4:00 PM 82.4 °F 83.4 °F 62.6 °F 51% 29.86 in 6.2 mi North 15.0 mph - N/A   Partly Cloudy
4:30 PM 82.4 °F 83.4 °F 62.6 °F 51% 29.86 in 6.2 mi North 15.0 mph - N/A   Partly Cloudy
5:00 PM 80.6 °F 82.3 °F 64.4 °F 58% 29.89 in 6.2 mi North 8.1 mph - N/A   Scattered Clouds
5:30 PM 80.6 °F 82.3 °F 64.4 °F 58% 29.89 in 6.2 mi North 10.4 mph - N/A   Scattered Clouds
6:00 PM 78.8 °F - 64.4 °F 61% 29.89 in 6.2 mi NNW 6.9 mph - N/A   Scattered Clouds
6:30 PM 77.0 °F - 64.4 °F 65% 29.89 in 6.2 mi NNW 8.1 mph - N/A   Scattered Clouds
7:00 PM 77.0 °F - 64.4 °F 65% 29.89 in 6.2 mi NNW 9.2 mph - N/A   Scattered Clouds
7:30 PM 75.2 °F - 62.6 °F 65% 29.89 in - North - - N/A   Scattered Clouds
8:00 PM 75.2 °F - 64.4 °F 69% 29.92 in 6.2 mi NNW 9.2 mph - N/A   Scattered Clouds
8:30 PM 75.2 °F - 64.4 °F 69% 29.92 in 6.2 mi North 9.2 mph - N/A   Scattered Clouds
9:00 PM 75.2 °F - 64.4 °F 69% 29.92 in 6.2 mi North 5.8 mph - N/A   Scattered Clouds
9:30 PM 75.2 °F - 64.4 °F 69% 29.92 in 6.2 mi North 6.9 mph - N/A   Scattered Clouds
10:00 PM 75.2 °F - 64.4 °F 69% 29.92 in 5.6 mi North 5.8 mph - N/A   Scattered Clouds
10:30 PM 73.4 °F - 64.4 °F 73% 29.92 in 5.6 mi North 6.9 mph - N/A   Scattered Clouds
11:00 PM 73.4 °F - 64.4 °F 73% 29.92 in 5.6 mi North 9.2 mph - N/A   Scattered Clouds
11:30 PM 75.2 °F - 64.4 °F 69% 29.92 in 5.6 mi North 9.2 mph - N/A   Scattered Clouds